Midland, MI

7:26 AM EST on February 09, 2016 (GMT -0500)
Barstow

Weather History for KIKW - June, 2013

Change the Weather History Date:

Tuesday, June 25, 2013

  Actual Average (KMBS) Record (KMBS)
Temperature  
Mean Temperature 74 °F 70 °F  
Max Temperature 80 °F 81 °F 96 °F (1998)
Min Temperature 68 °F 59 °F 42 °F (2004)
Degree Days  
Heating Degree Days 0    
Month to date heating degree days  
Since 1 June heating degree days  
Since 1 July heating degree days  
Cooling Degree Days 9    
Month to date cooling degree days  
Year to date cooling degree days  
Since 1 June cooling degree days  
Growing Degree Days 24 (Base 50)    
Moisture  
Dew Point 66 °F    
Average Humidity 79    
Maximum Humidity 96    
Minimum Humidity 60    
Precipitation  
Precipitation 0.01 in 0.11 in 0.07 in (2000)
Month to date precipitation 2.49  
Year to date precipitation 14.14  
Snow  
Snow 0.00 in - - ()
Month to date snowfall  
Since 1 June snowfall  
Since 1 July snowfall  
Snow Depth -    
Sea Level Pressure  
Sea Level Pressure 29.87 in    
Wind  
Wind Speed 4 mph (WSW)    
Max Wind Speed 15 mph    
Max Gust Speed 22 mph    
Visibility 10 miles    
Events Rain    
T = Trace of Precipitation, MM = Missing Value Source: NWS Daily Summary

Daily Weather History Graph

Daily Weather History Graph

Search for Another Location

Airport or City:

Trip Planner

Search our weather history database for the weather conditions in past years. The results will help you decide how hot, cold, wet, or windy it might be!

Date:

Astronomy

Jun. 25, 2013 Rise Set
Actual Time 5:56 AM EDT 9:22 PM EDT
Civil Twilight 5:20 AM EDT 9:58 PM EDT
Nautical Twilight 4:33 AM EDT 10:45 PM EDT
Astronomical Twilight 3:34 AM EDT 11:45 PM EDT
Moon 11:00 PM EDT (6/25) 8:40 AM EDT (6/25)
Length of Visible Light 16h 37m
Length of Day
15h 26m
Waning Gibbous, 93% of the Moon is Illuminated
Jun 25
Waning Gibbous
Jun 30
Last Quarter
Jul 8
New
Jul 15
First Quarter
Jul 22
Full

Hourly Weather History & Observations

Time (EDT) Temp. Heat Index Dew Point Humidity Pressure Visibility Wind Dir Wind Speed Gust Speed Precip Events Conditions
12:12 AM 68.9 °F - 63.7 °F 83% 29.89 in 10.0 mi Calm Calm - N/A   Scattered Clouds
12:32 AM 69.4 °F - 64.0 °F 83% 29.90 in 10.0 mi Calm Calm - N/A   Clear
12:51 AM 70.7 °F - 64.8 °F 81% 29.90 in 10.0 mi Calm Calm - N/A   Mostly Cloudy
1:11 AM 71.6 °F - 65.3 °F 80% 29.90 in 10.0 mi Calm Calm - N/A   Overcast
1:32 AM 71.6 °F - 65.8 °F 82% 29.90 in 10.0 mi SW 3.5 mph - N/A   Overcast
1:51 AM 71.6 °F - 65.8 °F 82% 29.90 in 10.0 mi SW 3.5 mph - N/A   Overcast
2:11 AM 71.6 °F - 65.8 °F 82% 29.89 in 10.0 mi Calm Calm - N/A   Overcast
2:32 AM 71.6 °F - 66.0 °F 82% 29.89 in 10.0 mi Calm Calm - N/A   Overcast
2:51 AM 70.7 °F - 66.2 °F 86% 29.88 in 10.0 mi Calm Calm - N/A   Scattered Clouds
3:11 AM 70.2 °F - 67.1 °F 90% 29.87 in 10.0 mi Calm Calm - N/A   Clear
3:32 AM 70.2 °F - 67.5 °F 91% 29.88 in 10.0 mi SW 3.5 mph - N/A   Clear
3:51 AM 70.2 °F - 67.3 °F 91% 29.88 in 10.0 mi SW 4.6 mph - N/A   Mostly Cloudy
4:11 AM 70.2 °F - 67.1 °F 90% 29.88 in 10.0 mi WSW 3.5 mph - N/A   Overcast
4:32 AM 70.2 °F - 67.3 °F 91% 29.87 in 10.0 mi SW 4.6 mph - N/A   Overcast
4:51 AM 70.0 °F - 67.1 °F 91% 29.88 in 10.0 mi WSW 5.8 mph - N/A   Overcast
5:11 AM 70.2 °F - 66.2 °F 87% 29.88 in 10.0 mi SW 10.4 mph - N/A   Overcast
5:32 AM 69.3 °F - 65.3 °F 87% 29.88 in 10.0 mi SW 4.6 mph - N/A   Mostly Cloudy
5:51 AM 69.1 °F - 64.9 °F 87% 29.88 in 10.0 mi SW 5.8 mph - N/A   Mostly Cloudy
6:11 AM 68.7 °F - 64.8 °F 87% 29.89 in 10.0 mi SW 5.8 mph - N/A   Mostly Cloudy
6:32 AM 68.7 °F - 64.8 °F 87% 29.90 in 10.0 mi SW 6.9 mph - N/A   Mostly Cloudy
6:51 AM 68.5 °F - 65.3 °F 89% 29.91 in 10.0 mi SW 8.1 mph - N/A   Mostly Cloudy
7:12 AM 68.5 °F - 65.3 °F 89% 29.91 in 10.0 mi WSW 4.6 mph - N/A   Mostly Cloudy
7:31 AM 69.1 °F - 65.7 °F 89% 29.91 in 10.0 mi SW 6.9 mph - N/A   Mostly Cloudy
7:51 AM 69.6 °F - 65.7 °F 87% 29.91 in 10.0 mi WSW 6.9 mph - N/A   Overcast
8:12 AM 70.0 °F - 66.2 °F 88% 29.91 in 10.0 mi SW 6.9 mph - N/A Rain Light Rain
8:31 AM 69.1 °F - 66.6 °F 92% 29.92 in 7.0 mi WSW 4.6 mph - N/A Rain Light Rain
8:52 AM 68.9 °F - 67.3 °F 95% 29.91 in 7.0 mi WSW 5.8 mph - 0.01 in Rain Light Rain
9:12 AM 69.4 °F - 67.8 °F 95% 29.90 in 7.0 mi SW 3.5 mph - N/A Rain Light Rain
9:31 AM 70.2 °F - 68.2 °F 93% 29.89 in 10.0 mi SSW 3.5 mph - N/A   Mostly Cloudy
9:52 AM 71.1 °F - 68.5 °F 92% 29.88 in 10.0 mi SSE 4.6 mph - N/A   Mostly Cloudy
10:12 AM 71.6 °F - 68.2 °F 89% 29.87 in 10.0 mi SSW 6.9 mph - N/A   Scattered Clouds
10:31 AM 72.1 °F - 68.9 °F 89% 29.88 in 10.0 mi South 11.5 mph - N/A   Mostly Cloudy
10:52 AM 73.9 °F - 68.9 °F 84% 29.89 in 10.0 mi SW 12.7 mph 17.3 mph N/A   Overcast
11:12 AM 73.9 °F - 67.6 °F 81% 29.89 in 10.0 mi WSW 5.8 mph 17.3 mph N/A   Overcast
11:31 AM 77.2 °F - 68.5 °F 75% 29.89 in 10.0 mi West 6.9 mph - N/A   Overcast
11:52 AM 77.2 °F - 68.4 °F 74% 29.89 in 10.0 mi West 8.1 mph 16.1 mph N/A   Overcast
12:12 PM 78.1 °F - 67.8 °F 71% 29.90 in 10.0 mi WSW 11.5 mph 18.4 mph N/A   Overcast
12:31 PM 78.1 °F - 67.3 °F 69% 29.90 in 10.0 mi WSW 9.2 mph - N/A   Overcast
12:52 PM 79.2 °F - 67.5 °F 67% 29.90 in 10.0 mi WSW 8.1 mph - N/A   Mostly Cloudy
1:12 PM 78.8 °F - 66.4 °F 66% 29.91 in 10.0 mi WSW 11.5 mph 20.7 mph N/A   Mostly Cloudy
1:31 PM 77.2 °F - 65.5 °F 67% 29.90 in 10.0 mi WSW 15.0 mph 21.9 mph N/A   Overcast
1:52 PM 77.2 °F - 66.4 °F 69% 29.87 in 10.0 mi WSW 4.6 mph - N/A   Mostly Cloudy
2:11 PM 76.3 °F - 66.4 °F 71% 29.86 in 10.0 mi SW 4.6 mph - N/A   Scattered Clouds
2:32 PM 77.2 °F - 66.4 °F 69% 29.84 in 10.0 mi West 4.6 mph - N/A   Clear
2:52 PM 77.2 °F - 66.2 °F 69% 29.84 in 10.0 mi SW 9.2 mph - N/A   Clear
3:11 PM 78.1 °F - 66.4 °F 67% 29.85 in 10.0 mi SW 11.5 mph - N/A   Clear
3:32 PM 78.8 °F - 65.8 °F 64% 29.85 in 10.0 mi WSW 10.4 mph - N/A   Scattered Clouds
3:52 PM 80.6 °F 82.7 °F 65.8 °F 61% 29.86 in 10.0 mi West 6.9 mph - N/A   Scattered Clouds
4:11 PM 79.2 °F - 66.0 °F 64% 29.87 in 10.0 mi WSW 12.7 mph 16.1 mph N/A   Mostly Cloudy
4:32 PM 78.6 °F - 65.8 °F 65% 29.86 in 10.0 mi West 9.2 mph 18.4 mph N/A   Overcast
4:51 PM 78.6 °F - 65.8 °F 65% 29.85 in 10.0 mi West 9.2 mph - N/A   Mostly Cloudy
5:12 PM 77.9 °F - 66.0 °F 67% 29.86 in 10.0 mi SW 9.2 mph - N/A   Scattered Clouds
5:32 PM 78.1 °F - 65.7 °F 65% 29.86 in 10.0 mi WSW 5.8 mph - N/A   Scattered Clouds
5:52 PM 79.3 °F - 66.0 °F 64% 29.86 in 10.0 mi West 9.2 mph - N/A   Scattered Clouds
6:12 PM 79.5 °F - 65.5 °F 62% 29.85 in 10.0 mi West 12.7 mph 17.3 mph N/A   Scattered Clouds
6:31 PM 79.7 °F - 65.8 °F 62% 29.84 in 10.0 mi WSW 9.2 mph - N/A   Clear
6:52 PM 79.7 °F - 65.5 °F 62% 29.84 in 10.0 mi WSW 8.1 mph - N/A   Clear
7:11 PM 80.6 °F 82.5 °F 65.7 °F 60% 29.83 in 10.0 mi West 6.9 mph - N/A   Clear
7:32 PM 79.7 °F - 65.3 °F 61% 29.83 in 10.0 mi WSW 6.9 mph - N/A   Clear
7:52 PM 79.0 °F - 65.3 °F 63% 29.83 in 10.0 mi WSW 6.9 mph - N/A   Clear
8:11 PM 78.6 °F - 65.5 °F 64% 29.82 in 10.0 mi WSW 3.5 mph - N/A   Clear
8:32 PM 78.1 °F - 65.7 °F 65% 29.82 in 10.0 mi WSW 3.5 mph - N/A   Clear
8:52 PM 73.9 °F - 67.6 °F 81% 29.82 in 10.0 mi Calm Calm - N/A   Clear
9:12 PM 72.7 °F - 68.0 °F 85% 29.82 in 10.0 mi Calm Calm - N/A   Clear
9:32 PM 72.0 °F - 67.6 °F 86% 29.83 in 10.0 mi Calm Calm - N/A   Clear
9:52 PM 71.1 °F - 67.3 °F 88% 29.83 in 10.0 mi Calm Calm - N/A   Clear
10:12 PM 70.7 °F - 68.2 °F 92% 29.84 in 10.0 mi Calm Calm - N/A   Clear
10:32 PM 70.5 °F - 67.6 °F 91% 29.84 in 10.0 mi Calm Calm - N/A   Clear
10:52 PM 69.3 °F - 67.5 °F 94% 29.84 in 10.0 mi Calm Calm - N/A   Clear
11:12 PM 68.7 °F - 66.9 °F 94% 29.84 in 10.0 mi Calm Calm - N/A   Clear
11:32 PM 68.4 °F - 67.1 °F 96% 29.84 in 10.0 mi Calm Calm - N/A   Clear
11:52 PM 68.2 °F - 67.1 °F 96% 29.85 in 10.0 mi Calm Calm - N/A   Clear